sat.trackr.live / text

‹ back to catalog

ONEWEB-0271

NORAD 48989 · 2021-060Y

PAYLOAD ACTIVE UNKNOWN

§ Identity

Operator
Country
UK
Launch date
2021-07-01
Launch site
VOSTO
Launch vehicle
Mass (kg)
RCS (m²)

Purposes: comms

External: N2YO · Heavens-Above · Gunter

§ Orbital elements

Epoch: 2026-09-12T22:44:10.285728Z

Period
109.37 min
Inclination
87.9139°
Eccentricity
0.0002153
Mean motion
13.16593535 rev/d
Perigee alt
1,196.1 km
Apogee alt
1,199.4 km
Semi-major
7,575.9 km
B*
1.9793e-4
RAAN
211.3458°
Arg perigee
73.3649°
Mean anomaly
286.7719°
Rev number
25,121

§ Raw data

ONEWEB-02711 48989U 21060Y   26255.94734127  .00000089  00000+0  19793-3 0  99922 48989  87.9139 211.3458 0002153  73.3649 286.7719 13.16593535251216

JSON: /api/v1/satellites/48989 · /tle

For live sub-satellite position, see the globe view (requires WebGL).

§ Visibility from observer

Set your observer location to see the next 7 days of passes ≥ 10°. The values pass through the URL so the page stays shareable.

No JS? Fill the form by hand. The geolocation button needs JavaScript.